User: anonymous   Login
Location: Hartman Creek State Park
(44.3257°N, 89.2134°W)
Time: 16:43:09
(UTC-05:00)
Language:

Terra - Orbit

View from above orbital plane
View from above orbital plane
View from above satellite
View from above satellite

Ground track
Ground track

The orbit data is extracted from the following two-line orbital elements,

1 25994U 99068A   16242.29099606  .00000092  00000-0  30352-4 0  9995
2 25994  98.2041 315.5459 0000637  93.5550 266.5718 14.57127072888162
Epoch (UTC): 29 August 2016 06:59:02
Eccentricity: 0.0000637
inclination: 98.2041°
perigee height: 702 km
apogee height: 703 km
right ascension of ascending node: 315.5459°
argument of perigee: 93.5550°
revolutions per day: 14.57127072
mean anomaly at epoch: 266.5718°
orbit number at epoch: 88816

The dashed part of the orbit path shows where the satellite is in the earth's shadow,  

DLR